Retour au catalogue

ONEWEB-0045

ActifCommunicationsPO
NORAD 45151·PAYLOAD·🇬🇧 United Kingdom

Lancé Feb 6, 2020 depuis Baikonur Cosmodrome

Loading…

Prochains Passages (prochaines 24 heures)

TLE

FraisSource: CelesTrak SupGP

Époque: Sep 14, 2026, 14:34 UTC

1 45151C 20008W   26257.60711065  .00001982  00000+0  55989-2 0  2578
2 45151  87.8984   3.2866 0001922 100.7080  10.9339 13.11417679    13

Suivez ONEWEB-0045 en temps réel avec AllMySat

Download on the App Store